sat.trackr.live / text

‹ back to catalog

STARLINK-2144

NORAD 47734 · 2021-017N

PAYLOAD ACTIVE UNKNOWN

§ Identity

Operator
Country
US
Launch date
2021-03-04
Launch site
AFETR
Launch vehicle
Mass (kg)
RCS (m²)

Purposes: comms

External: N2YO · Heavens-Above · Gunter

§ Orbital elements

Epoch: 2026-09-19T23:17:45.271104Z

Period
94.01 min
Inclination
53.1616°
Eccentricity
0.0001089
Mean motion
15.31698002 rev/d
Perigee alt
470.0 km
Apogee alt
471.5 km
Semi-major
6,848.9 km
B*
-1.3048e-5
RAAN
19.7540°
Arg perigee
94.8330°
Mean anomaly
265.2796°
Rev number
30,763

§ Raw data

STARLINK-21441 47734U 21017N   26262.97066286 -.00000770  00000+0 -13048-4 0  99932 47734  53.1616  19.7540 0001089  94.8330 265.2796 15.31698002307631

JSON: /api/v1/satellites/47734 · /tle

For live sub-satellite position, see the globe view (requires WebGL).

§ Visibility from observer

Set your observer location to see the next 7 days of passes ≥ 10°. The values pass through the URL so the page stays shareable.

No JS? Fill the form by hand. The geolocation button needs JavaScript.